• In Deutschland
  • Länderverzeichnis
  • Für 7 Tage
  • Wassertemperatur
  • Satellitenkarten
  • Wetterkarte
  • Widgets
  • user-avatar
    Anmelden

    Stündliche Wetter Mykhailivka Persha

    Heute, 19 September, Mittwoch

    Zeit Temperatur Niederschläge Wind Luftdruck Luftfeuchtigkeit
    00:00 +14°C° 0 mm 3 m/S 755 mmHg 78%
    01:00 +15°C° 0 mm 2 m/S 755 mmHg 80%
    02:00 +14°C° 0 mm 2 m/S 755 mmHg 81%
    03:00 +14°C° 0 mm 2 m/S 755 mmHg 82%
    04:00 +14°C° 0 mm 2 m/S 755 mmHg 84%
    05:00 +14°C° 0 mm 2 m/S 755 mmHg 86%
    06:00 +15°C° 0 mm 2 m/S 755 mmHg 79%
    07:00 +18°C° 0 mm 1 m/S 755 mmHg 73%
    08:00 +19°C° 0 mm 1 m/S 756 mmHg 65%
    09:00 +20°C° 0 mm 2 m/S 756 mmHg 59%
    10:00 +23°C° 0 mm 2 m/S 756 mmHg 53%
    11:00 +24°C° 0 mm 3 m/S 756 mmHg 47%
    12:00 +25°C° 0 mm 3 m/S 756 mmHg 43%
    13:00 +26°C° 0 mm 3 m/S 756 mmHg 40%
    14:00 +27°C° 0 mm 4 m/S 755 mmHg 37%
    15:00 +26°C° 0 mm 3 m/S 755 mmHg 41%
    16:00 +25°C° 0 mm 3 m/S 755 mmHg 45%
    17:00 +24°C° 0 mm 2 m/S 755 mmHg 49%
    18:00 +21°C° 0 mm 2 m/S 755 mmHg 53%
    19:00 +20°C° 0 mm 2 m/S 755 mmHg 56%
    20:00 +18°C° 0 mm 2 m/S 755 mmHg 60%
    21:00 +18°C° 0 mm 2 m/S 755 mmHg 62%
    22:00 +17°C° 0 mm 2 m/S 755 mmHg 64%
    23:00 +17°C° 0 mm 2 m/S 755 mmHg 67%

    Morgen, 20 September, Donnerstag

    Zeit Temperatur Niederschläge Wind Luftdruck Luftfeuchtigkeit
    00:00 +17°C° 0 mm 2 m/S 755 mmHg 68%
    01:00 +16°C° 0 mm 2 m/S 755 mmHg 69%
    02:00 +16°C° 0 mm 2 m/S 755 mmHg 71%
    03:00 +16°C° 0 mm 2 m/S 755 mmHg 72%
    04:00 +16°C° 0 mm 2 m/S 755 mmHg 73%
    05:00 +15°C° 0 mm 2 m/S 755 mmHg 75%
    06:00 +17°C° 0 mm 2 m/S 755 mmHg 70%
    07:00 +18°C° 0 mm 3 m/S 755 mmHg 65%
    08:00 +20°C° 0 mm 3 m/S 755 mmHg 61%
    09:00 +22°C° 0 mm 3 m/S 755 mmHg 56%
    10:00 +25°C° 0 mm 3 m/S 755 mmHg 51%
    11:00 +27°C° 0 mm 4 m/S 755 mmHg 45%
    12:00 +27°C° 0 mm 4 m/S 755 mmHg 44%
    13:00 +28°C° 0 mm 4 m/S 754 mmHg 42%
    14:00 +28°C° 0 mm 4 m/S 754 mmHg 40%
    15:00 +27°C° 0 mm 3 m/S 754 mmHg 44%
    16:00 +26°C° 0 mm 3 m/S 754 mmHg 49%
    17:00 +25°C° 0 mm 2 m/S 754 mmHg 53%
    18:00 +24°C° 0 mm 2 m/S 754 mmHg 57%
    19:00 +21°C° 0 mm 2 m/S 754 mmHg 61%
    20:00 +20°C° 0 mm 2 m/S 754 mmHg 65%
    21:00 +19°C° 0 mm 2 m/S 754 mmHg 67%
    22:00 +19°C° 0 mm 2 m/S 754 mmHg 69%
    23:00 +18°C° 0 mm 2 m/S 754 mmHg 71%

    übermorgen, 21 September, Freitag

    Zeit Temperatur Niederschläge Wind Luftdruck Luftfeuchtigkeit
    00:00 +19°C° 0 mm 1 m/S 754 mmHg 73%
    01:00 +18°C° 0 mm 1 m/S 754 mmHg 75%
    02:00 +18°C° 0 mm 1 m/S 754 mmHg 77%
    03:00 +18°C° 0 mm 1 m/S 754 mmHg 79%
    04:00 +16°C° 0 mm 1 m/S 755 mmHg 81%
    05:00 +16°C° 0 mm 1 m/S 755 mmHg 83%
    06:00 +19°C° 0 mm 1 m/S 755 mmHg 78%
    07:00 +20°C° 0 mm 1 m/S 755 mmHg 73%
    08:00 +22°C° 0 mm 1 m/S 755 mmHg 67%
    09:00 +24°C° 0 mm 1 m/S 755 mmHg 61%
    10:00 +25°C° 0 mm 1 m/S 755 mmHg 56%
    11:00 +27°C° 0 mm 1 m/S 755 mmHg 50%
    12:00 +28°C° 0 mm 1 m/S 755 mmHg 46%
    13:00 +28°C° 0 mm 1 m/S 755 mmHg 43%
    14:00 +29°C° 0 mm 1 m/S 755 mmHg 40%
    15:00 +28°C° 0 mm 1 m/S 754 mmHg 43%
    16:00 +27°C° 0 mm 1 m/S 754 mmHg 45%
    17:00 +26°C° 0 mm 1 m/S 754 mmHg 48%
    18:00 +25°C° 0 mm 1 m/S 754 mmHg 51%
    19:00 +23°C° 0 mm 1 m/S 754 mmHg 53%
    20:00 +22°C° 0 mm 1 m/S 754 mmHg 56%
    21:00 +22°C° 0 mm 1 m/S 754 mmHg 57%
    22:00 +20°C° 0 mm 2 m/S 754 mmHg 59%
    23:00 +20°C° 0 mm 2 m/S 754 mmHg 60%

    22 September, Samstag

    Zeit Temperatur Niederschläge Wind Luftdruck Luftfeuchtigkeit
    00:00 +19°C° 0 mm 2 m/S 754 mmHg 61%
    01:00 +19°C° 0 mm 2 m/S 754 mmHg 62%
    02:00 +18°C° 0 mm 2 m/S 754 mmHg 62%
    03:00 +18°C° 0 mm 2 m/S 754 mmHg 63%
    04:00 +18°C° 0 mm 2 m/S 754 mmHg 63%
    05:00 +17°C° 0 mm 2 m/S 754 mmHg 64%
    06:00 +19°C° 0 mm 2 m/S 754 mmHg 60%
    07:00 +20°C° 0 mm 2 m/S 754 mmHg 56%
    08:00 +23°C° 0 mm 2 m/S 754 mmHg 51%
    09:00 +25°C° 0 mm 2 m/S 754 mmHg 47%
    10:00 +26°C° 0 mm 3 m/S 754 mmHg 42%
    11:00 +28°C° 0 mm 3 m/S 754 mmHg 38%
    12:00 +29°C° 0 mm 3 m/S 753 mmHg 36%
    13:00 +29°C° 0 mm 3 m/S 753 mmHg 34%
    14:00 +30°C° 0 mm 3 m/S 752 mmHg 32%
    15:00 +29°C° 0 mm 3 m/S 752 mmHg 35%
    16:00 +27°C° 0 mm 2 m/S 752 mmHg 38%
    17:00 +26°C° 0 mm 2 m/S 751 mmHg 41%
    18:00 +25°C° 0 mm 2 m/S 751 mmHg 43%
    19:00 +24°C° 0 mm 2 m/S 752 mmHg 45%
    20:00 +21°C° 0 mm 2 m/S 752 mmHg 47%
    21:00 +21°C° 0 mm 2 m/S 751 mmHg 48%
    22:00 +21°C° 0 mm 2 m/S 751 mmHg 48%
    23:00 +20°C° 0 mm 3 m/S 751 mmHg 48%

    23 September, Sonntag

    Zeit Temperatur Niederschläge Wind Luftdruck Luftfeuchtigkeit
    00:00 +20°C° 0 mm 3 m/S 751 mmHg 49%
    01:00 +19°C° 0 mm 3 m/S 750 mmHg 49%
    02:00 +19°C° 0 mm 3 m/S 750 mmHg 50%
    03:00 +19°C° 0 mm 3 m/S 749 mmHg 52%
    04:00 +18°C° 0 mm 3 m/S 749 mmHg 54%
    05:00 +18°C° 0 mm 3 m/S 749 mmHg 56%
    06:00 +19°C° 0 mm 4 m/S 748 mmHg 54%
    07:00 +20°C° 0 mm 5 m/S 748 mmHg 53%
    08:00 +22°C° 0 mm 5 m/S 748 mmHg 51%
    09:00 +23°C° 0 mm 6 m/S 748 mmHg 47%
    10:00 +24°C° 0 mm 7 m/S 748 mmHg 44%
    11:00 +26°C° 0 mm 7 m/S 748 mmHg 41%
    12:00 +22°C° 0.4 mm 8 m/S 748 mmHg 51%
    13:00 +18°C° 0.4 mm 8 m/S 748 mmHg 60%
    14:00 +15°C° 0.4 mm 8 m/S 748 mmHg 70%
    15:00 +13°C° 0.8 mm 8 m/S 749 mmHg 72%
    16:00 +11°C° 0.8 mm 7 m/S 750 mmHg 73%
    17:00 +10°C° 0.8 mm 6 m/S 750 mmHg 75%
    18:00 +10°C° 0 mm 5 m/S 751 mmHg 77%
    19:00 +9°C° 0 mm 5 m/S 751 mmHg 79%
    20:00 +10°C° 0 mm 4 m/S 752 mmHg 81%
    21:00 +10°C° 0 mm 3 m/S 752 mmHg 83%
    22:00 +9°C° 0 mm 3 m/S 752 mmHg 86%
    23:00 +9°C° 0 mm 2 m/S 752 mmHg 88%

    24 September, Montag

    Zeit Temperatur Niederschläge Wind Luftdruck Luftfeuchtigkeit
    00:00 +8°C° 0 mm 2 m/S 752 mmHg 89%
    01:00 +8°C° 0 mm 2 m/S 753 mmHg 90%
    02:00 +8°C° 0 mm 2 m/S 753 mmHg 90%
    03:00 +8°C° 0 mm 2 m/S 753 mmHg 91%
    04:00 +7°C° 0 mm 2 m/S 753 mmHg 92%
    05:00 +7°C° 0 mm 2 m/S 753 mmHg 92%
    06:00 +9°C° 0 mm 2 m/S 753 mmHg 85%
    07:00 +10°C° 0 mm 2 m/S 754 mmHg 78%
    08:00 +13°C° 0 mm 1 m/S 754 mmHg 71%
    09:00 +14°C° 0 mm 2 m/S 754 mmHg 62%
    10:00 +16°C° 0 mm 2 m/S 754 mmHg 53%
    11:00 +18°C° 0 mm 2 m/S 754 mmHg 43%
    12:00 +18°C° 0 mm 2 m/S 753 mmHg 40%
    13:00 +19°C° 0 mm 2 m/S 753 mmHg 37%
    14:00 +20°C° 0 mm 3 m/S 753 mmHg 33%
    15:00 +19°C° 0 mm 2 m/S 752 mmHg 36%
    16:00 +18°C° 0 mm 2 m/S 752 mmHg 39%
    17:00 +18°C° 0 mm 2 m/S 752 mmHg 42%
    18:00 +16°C° 0 mm 2 m/S 752 mmHg 43%
    19:00 +14°C° 0 mm 3 m/S 752 mmHg 43%
    20:00 +13°C° 0 mm 3 m/S 752 mmHg 44%
    21:00 +13°C° 0 mm 3 m/S 752 mmHg 45%
    22:00 +13°C° 0 mm 3 m/S 752 mmHg 45%
    23:00 +12°C° 0 mm 3 m/S 752 mmHg 46%
    Mehr zeigen